LPE2028 SPJC-SPZO

Flight info

Callsign LPE2028
Flight time 0h 50m
Altitude 37000
Route PAKOL UM668 POVLO DCT DARKI
Aircraft A320/M-SDE3FGHIJ1RWY/LB1

Departure

Time 2026-04-27 18:56
Airport Jorge Chávez International Airport (SPJC)

Arrival

Time 2026-04-27 19:46
Airport Alejandro Velasco Astete International Airport (SPZO)
Time Latitude Longitude Altitude Speed Heading
2026-04-27 18:33 -12.02720 -77.11828 83 ft 0 kts 64°
2026-04-27 18:47 -12.02727 -77.11843 85 ft 4 kts 62°
2026-04-27 18:47 -12.02740 -77.11866 84 ft 4 kts 57°
2026-04-27 18:47 -12.02754 -77.11886 83 ft 4 kts 46°
2026-04-27 18:48 -12.02773 -77.11901 83 ft 4 kts
2026-04-27 18:48 -12.02786 -77.11900 84 ft 1 kts 334°
2026-04-27 18:48 -12.02788 -77.11900 81 ft 0 kts 334°
2026-04-27 18:50 -12.02755 -77.11915 83 ft 9 kts 334°
2026-04-27 18:50 -12.02685 -77.11949 82 ft 13 kts 335°
2026-04-27 18:51 -12.02600 -77.11990 84 ft 14 kts 335°
2026-04-27 18:51 -12.02547 -77.12043 80 ft 11 kts 264°
2026-04-27 18:51 -12.02585 -77.12133 67 ft 13 kts 244°
2026-04-27 18:51 -12.02620 -77.12210 57 ft 12 kts 260°
2026-04-27 18:52 -12.02545 -77.12275 56 ft 18 kts 337°
2026-04-27 18:52 -12.02421 -77.12333 56 ft 22 kts 333°
2026-04-27 18:52 -12.02272 -77.12408 50 ft 26 kts 334°
2026-04-27 18:53 -12.01918 -77.12587 44 ft 30 kts 333°
2026-04-27 18:53 -12.01734 -77.12675 46 ft 28 kts 335°
2026-04-27 18:53 -12.01548 -77.12766 41 ft 31 kts 334°
2026-04-27 18:53 -12.01352 -77.12864 39 ft 31 kts 334°
2026-04-27 18:54 -12.01232 -77.12917 38 ft 15 kts 341°
2026-04-27 18:54 -12.01154 -77.12970 38 ft 9 kts 275°
2026-04-27 18:54 -12.01175 -77.13022 38 ft 8 kts 244°
2026-04-27 18:54 -12.01203 -77.13079 37 ft 9 kts 244°
2026-04-27 18:55 -12.01230 -77.13098 36 ft 4 kts 170°
2026-04-27 18:55 -12.01242 -77.13093 36 ft 0 kts 154°
2026-04-27 18:55 -12.01250 -77.13089 36 ft 8 kts 154°
2026-04-27 18:55 -12.01539 -77.12947 38 ft 86 kts 154°
2026-04-27 18:56 -12.02266 -77.12587 45 ft 147 kts 154°
2026-04-27 18:56 -12.03281 -77.12095 456 ft 165 kts 156°
2026-04-27 18:56 -12.04307 -77.11556 1207 ft 166 kts 153°
2026-04-27 18:56 -12.05305 -77.10966 1989 ft 168 kts 151°
2026-04-27 18:57 -12.06370 -77.10323 2426 ft 189 kts 150°
2026-04-27 18:57 -12.07576 -77.09596 2810 ft 214 kts 149°
2026-04-27 18:57 -12.08931 -77.08785 3327 ft 239 kts 149°
2026-04-27 18:57 -12.10442 -77.07885 3868 ft 262 kts 149°
2026-04-27 18:58 -12.12058 -77.06927 4660 ft 273 kts 149°
2026-04-27 18:58 -12.13718 -77.05947 5517 ft 279 kts 150°
2026-04-27 18:58 -12.15416 -77.04947 6407 ft 284 kts 150°
2026-04-27 18:58 -12.17159 -77.03980 7232 ft 287 kts 153°
2026-04-27 18:59 -12.18962 -77.03071 8121 ft 290 kts 154°
2026-04-27 18:59 -12.20790 -77.02182 9002 ft 293 kts 155°
2026-04-27 18:59 -12.22614 -77.01234 9873 ft 296 kts 147°
2026-04-27 18:59 -12.24162 -76.99790 10323 ft 314 kts 126°
2026-04-27 19:00 -12.25277 -76.97776 10564 ft 337 kts 117°
2026-04-27 19:00 -12.26348 -76.95605 11080 ft 347 kts 116°
2026-04-27 19:00 -12.27426 -76.93379 11772 ft 351 kts 116°
2026-04-27 19:00 -12.28515 -76.91127 12471 ft 355 kts 116°
2026-04-27 19:01 -12.29616 -76.88853 13171 ft 358 kts 116°
2026-04-27 19:01 -12.30728 -76.86566 13848 ft 362 kts 116°
2026-04-27 19:01 -12.31862 -76.84253 14438 ft 365 kts 116°
2026-04-27 19:01 -12.33009 -76.81924 15066 ft 368 kts 116°
2026-04-27 19:02 -12.34166 -76.79581 15704 ft 370 kts 116°
2026-04-27 19:02 -12.35329 -76.77228 16320 ft 373 kts 116°
2026-04-27 19:02 -12.36500 -76.74848 16926 ft 376 kts 115°
2026-04-27 19:02 -12.37678 -76.72445 17522 ft 379 kts 115°
2026-04-27 19:03 -12.38849 -76.70057 18096 ft 382 kts 115°
2026-04-27 19:03 -12.40048 -76.67613 18629 ft 386 kts 115°
2026-04-27 19:03 -12.41253 -76.65157 19121 ft 389 kts 115°
2026-04-27 19:03 -12.42076 -76.63479 19453 ft 391 kts 115°
2026-04-27 19:04 -12.43696 -76.60167 20118 ft 395 kts 115°
2026-04-27 19:04 -12.44920 -76.57645 20598 ft 398 kts 115°
2026-04-27 19:04 -12.46152 -76.55096 21091 ft 401 kts 115°
2026-04-27 19:04 -12.47393 -76.52528 21557 ft 404 kts 115°
2026-04-27 19:05 -12.48640 -76.49951 22008 ft 406 kts 115°
2026-04-27 19:05 -12.49896 -76.47347 22462 ft 409 kts 115°
2026-04-27 19:05 -12.50889 -76.44614 22879 ft 412 kts 105°
2026-04-27 19:05 -12.51674 -76.41782 23301 ft 415 kts 105°
2026-04-27 19:06 -12.52451 -76.38934 23709 ft 418 kts 105°
2026-04-27 19:06 -12.53231 -76.36055 24063 ft 421 kts 105°
2026-04-27 19:06 -12.54014 -76.33154 24400 ft 424 kts 105°
2026-04-27 19:06 -12.54803 -76.30242 24764 ft 427 kts 105°
2026-04-27 19:07 -12.55598 -76.27300 25111 ft 430 kts 105°
2026-04-27 19:07 -12.56396 -76.24336 25450 ft 433 kts 105°
2026-04-27 19:07 -12.57202 -76.21351 25794 ft 436 kts 105°
2026-04-27 19:07 -12.58012 -76.18346 26134 ft 439 kts 105°
2026-04-27 19:08 -12.58816 -76.15327 26482 ft 442 kts 105°
2026-04-27 19:08 -12.59635 -76.12281 26822 ft 445 kts 105°
2026-04-27 19:08 -12.60466 -76.09218 27153 ft 448 kts 105°
2026-04-27 19:08 -12.61300 -76.06144 27483 ft 451 kts 105°
2026-04-27 19:09 -12.62140 -76.03040 27803 ft 454 kts 105°
2026-04-27 19:09 -12.62985 -75.99916 28133 ft 456 kts 105°
2026-04-27 19:09 -12.63836 -75.96772 28460 ft 459 kts 105°
2026-04-27 19:09 -12.64680 -75.93654 28778 ft 462 kts 105°
2026-04-27 19:10 -12.65550 -75.90436 29098 ft 465 kts 105°
2026-04-27 19:10 -12.66401 -75.87281 29400 ft 467 kts 105°
2026-04-27 19:10 -12.67269 -75.84062 29694 ft 470 kts 105°
2026-04-27 19:10 -12.67855 -75.81883 29893 ft 472 kts 105°
2026-04-27 19:11 -12.69009 -75.77576 30252 ft 475 kts 105°
2026-04-27 19:11 -12.69885 -75.74301 30503 ft 477 kts 105°
2026-04-27 19:11 -12.70765 -75.71012 30757 ft 480 kts 105°
2026-04-27 19:11 -12.71646 -75.67718 31014 ft 482 kts 105°
2026-04-27 19:12 -12.72533 -75.64400 31266 ft 484 kts 105°
2026-04-27 19:12 -12.73424 -75.61073 31564 ft 484 kts 105°
2026-04-27 19:12 -12.74314 -75.57751 31952 ft 483 kts 105°
2026-04-27 19:12 -12.75202 -75.54446 32320 ft 482 kts 105°
2026-04-27 19:13 -12.76092 -75.51138 32689 ft 481 kts 105°
2026-04-27 19:13 -12.76978 -75.47834 33072 ft 480 kts 105°
2026-04-27 19:13 -12.77856 -75.44544 33437 ft 479 kts 105°
2026-04-27 19:13 -12.78735 -75.41250 33819 ft 478 kts 105°
2026-04-27 19:14 -12.79610 -75.37963 34208 ft 477 kts 105°
2026-04-27 19:14 -12.80483 -75.34693 34551 ft 476 kts 105°
2026-04-27 19:14 -12.81358 -75.31420 34893 ft 475 kts 105°
2026-04-27 19:14 -12.82229 -75.28152 35232 ft 475 kts 104°
2026-04-27 19:15 -12.83097 -75.24889 35561 ft 474 kts 104°
2026-04-27 19:15 -12.83952 -75.21679 35886 ft 473 kts 104°
2026-04-27 19:15 -12.84816 -75.18431 36186 ft 472 kts 104°
2026-04-27 19:15 -12.85679 -75.15184 36462 ft 472 kts 104°
2026-04-27 19:16 -12.86541 -75.11949 36761 ft 471 kts 104°
2026-04-27 19:16 -12.87124 -75.09756 36938 ft 471 kts 104°
2026-04-27 19:16 -12.88263 -75.05464 37126 ft 471 kts 104°
2026-04-27 19:17 -12.89975 -74.99000 37127 ft 470 kts 104°
2026-04-27 19:17 -12.91684 -74.92533 37124 ft 469 kts 104°
2026-04-27 19:18 -12.93396 -74.86081 37117 ft 470 kts 104°
2026-04-27 19:18 -12.95110 -74.79624 37111 ft 470 kts 104°
2026-04-27 19:19 -12.96819 -74.73153 37103 ft 470 kts 104°
2026-04-27 19:19 -12.98528 -74.66686 37091 ft 470 kts 103°
2026-04-27 19:20 -13.00234 -74.60206 37084 ft 470 kts 104°
2026-04-27 19:20 -13.01827 -74.54152 37084 ft 470 kts 103°
2026-04-27 19:21 -13.03523 -74.47693 37137 ft 470 kts 103°
2026-04-27 19:21 -13.05221 -74.41213 37201 ft 471 kts 103°
2026-04-27 19:22 -13.06925 -74.34735 37266 ft 471 kts 104°
2026-04-27 19:22 -13.08632 -74.28247 37330 ft 471 kts 104°
2026-04-27 19:23 -13.10321 -74.21802 37342 ft 471 kts 103°
2026-04-27 19:23 -13.12014 -74.15321 37341 ft 471 kts 103°
2026-04-27 19:24 -13.13703 -74.08841 37313 ft 471 kts 103°
2026-04-27 19:24 -13.15408 -74.02348 37244 ft 471 kts 104°
2026-04-27 19:25 -13.17105 -73.95862 37174 ft 471 kts 103°
2026-04-27 19:25 -13.18789 -73.89363 37105 ft 471 kts 103°
2026-04-27 19:26 -13.20474 -73.82869 37030 ft 471 kts 104°
2026-04-27 19:26 -13.22163 -73.76382 37018 ft 471 kts 103°
2026-04-27 19:27 -13.23852 -73.69885 37014 ft 471 kts 103°
2026-04-27 19:27 -13.25535 -73.63403 37003 ft 470 kts 103°
2026-04-27 19:28 -13.27222 -73.56914 37000 ft 470 kts 103°
2026-04-27 19:28 -13.28899 -73.50435 37001 ft 470 kts 103°
2026-04-27 19:29 -13.30569 -73.43957 37006 ft 470 kts 103°
2026-04-27 19:29 -13.32244 -73.37470 37004 ft 470 kts 103°
2026-04-27 19:30 -13.33903 -73.31038 36477 ft 469 kts 104°
2026-04-27 19:30 -13.34736 -73.27809 35759 ft 470 kts 104°
2026-04-27 19:30 -13.35569 -73.24562 35191 ft 468 kts 104°
2026-04-27 19:30 -13.36395 -73.21340 34681 ft 465 kts 104°
2026-04-27 19:31 -13.37217 -73.18150 34183 ft 462 kts 105°
2026-04-27 19:31 -13.38039 -73.14974 33661 ft 458 kts 105°
2026-04-27 19:31 -13.38856 -73.11825 33142 ft 454 kts 105°
2026-04-27 19:31 -13.39659 -73.08715 32667 ft 449 kts 104°
2026-04-27 19:32 -13.40453 -73.05624 32184 ft 445 kts 104°
2026-04-27 19:32 -13.41236 -73.02561 31701 ft 441 kts 104°
2026-04-27 19:32 -13.42009 -72.99525 31248 ft 437 kts 104°
2026-04-27 19:32 -13.42773 -72.96525 30816 ft 433 kts 104°
2026-04-27 19:33 -13.43527 -72.93573 30644 ft 422 kts 104°
2026-04-27 19:33 -13.43778 -72.92590 30542 ft 419 kts 104°
2026-04-27 19:33 -13.44971 -72.87829 29909 ft 410 kts 100°
2026-04-27 19:33 -13.45331 -72.84938 29344 ft 408 kts 94°
2026-04-27 19:34 -13.45561 -72.82032 28741 ft 408 kts 94°
2026-04-27 19:34 -13.45789 -72.79137 28217 ft 405 kts 94°
2026-04-27 19:34 -13.46019 -72.76270 27731 ft 402 kts 94°
2026-04-27 19:34 -13.46247 -72.73417 27256 ft 399 kts 94°
2026-04-27 19:35 -13.46472 -72.70585 26785 ft 396 kts 94°
2026-04-27 19:35 -13.46694 -72.67793 26286 ft 389 kts 94°
2026-04-27 19:35 -13.46913 -72.65048 25788 ft 382 kts 95°
2026-04-27 19:35 -13.47131 -72.62331 25361 ft 380 kts 95°
2026-04-27 19:36 -13.47273 -72.60547 25095 ft 377 kts 95°
2026-04-27 19:36 -13.47553 -72.57003 24556 ft 374 kts 95°
2026-04-27 19:36 -13.47694 -72.55212 24281 ft 372 kts 95°
2026-04-27 19:36 -13.47602 -72.51713 23754 ft 369 kts 81°
2026-04-27 19:37 -13.46956 -72.49167 23313 ft 368 kts 71°
2026-04-27 19:37 -13.46136 -72.46684 22864 ft 366 kts 72°
2026-04-27 19:37 -13.45331 -72.44224 22448 ft 363 kts 72°
2026-04-27 19:37 -13.44533 -72.41774 22041 ft 360 kts 72°
2026-04-27 19:38 -13.43998 -72.40127 21777 ft 358 kts 72°
2026-04-27 19:38 -13.43214 -72.37715 21381 ft 355 kts 72°
2026-04-27 19:38 -13.42575 -72.35284 20912 ft 349 kts 82°
2026-04-27 19:38 -13.42462 -72.32817 20378 ft 342 kts 95°
2026-04-27 19:39 -13.42859 -72.30474 19881 ft 335 kts 107°
2026-04-27 19:39 -13.43563 -72.28219 19389 ft 329 kts 108°
2026-04-27 19:39 -13.44250 -72.26001 18914 ft 325 kts 108°
2026-04-27 19:39 -13.44924 -72.23800 18453 ft 322 kts 107°
2026-04-27 19:40 -13.45587 -72.21633 18329 ft 314 kts 107°
2026-04-27 19:40 -13.46238 -72.19515 18070 ft 310 kts 108°
2026-04-27 19:40 -13.46885 -72.17411 17779 ft 306 kts 107°
2026-04-27 19:40 -13.47517 -72.15353 17439 ft 299 kts 107°
2026-04-27 19:41 -13.48133 -72.13337 17217 ft 293 kts 107°
2026-04-27 19:41 -13.48739 -72.11356 16967 ft 289 kts 107°
2026-04-27 19:41 -13.49341 -72.09388 16666 ft 288 kts 107°
2026-04-27 19:41 -13.49931 -72.07446 16404 ft 280 kts 107°
2026-04-27 19:42 -13.50503 -72.05567 16095 ft 272 kts 107°
2026-04-27 19:42 -13.51059 -72.03734 15789 ft 266 kts 107°
2026-04-27 19:42 -13.51604 -72.01935 15450 ft 261 kts 107°
2026-04-27 19:42 -13.52138 -72.00179 15179 ft 252 kts 107°
2026-04-27 19:43 -13.52647 -71.98507 14943 ft 241 kts 107°
2026-04-27 19:43 -13.53142 -71.96883 14718 ft 235 kts 107°
2026-04-27 19:43 -13.53716 -71.95324 14386 ft 233 kts 116°
2026-04-27 19:43 -13.54524 -71.93873 13911 ft 235 kts 123°
2026-04-27 19:44 -13.55336 -71.92458 13483 ft 224 kts 115°
2026-04-27 19:44 -13.55825 -71.90971 13064 ft 217 kts 102°
2026-04-27 19:44 -13.55976 -71.89488 12892 ft 204 kts 85°
2026-04-27 19:44 -13.55431 -71.88306 12931 ft 180 kts 32°
2026-04-27 19:45 -13.54273 -71.88305 12739 ft 181 kts 318°
2026-04-27 19:45 -13.53831 -71.89484 12224 ft 190 kts 266°
2026-04-27 19:45 -13.53889 -71.90882 11214 ft 194 kts 277°
2026-04-27 19:45 -13.53751 -71.92213 10803 ft 181 kts 278°
2026-04-27 19:46 -13.53625 -71.93412 10775 ft 152 kts 278°
2026-04-27 19:46 -13.53523 -71.94332 10815 ft 88 kts 276°
2026-04-27 19:46 -13.53491 -71.94670 10827 ft 28 kts 275°
2026-04-27 19:46 -13.53479 -71.94815 10835 ft 14 kts 274°
2026-04-27 19:47 -13.53492 -71.94898 10846 ft 10 kts 243°
2026-04-27 19:47 -13.53544 -71.94943 10851 ft 12 kts 200°
2026-04-27 19:47 -13.53607 -71.94887 10837 ft 17 kts 95°
2026-04-27 19:47 -13.53617 -71.94758 10828 ft 21 kts 96°
2026-04-27 19:48 -13.53633 -71.94625 10822 ft 15 kts 97°
2026-04-27 19:48 -13.53644 -71.94533 10817 ft 10 kts 96°
2026-04-27 19:48 -13.53654 -71.94468 10817 ft 7 kts 115°
2026-04-27 19:48 -13.53686 -71.94445 10817 ft 4 kts 147°
2026-04-27 19:49 -13.53707 -71.94431 10817 ft 4 kts 146°
2026-04-27 19:49 -13.53724 -71.94419 10817 ft 2 kts 147°
2026-04-27 19:49 -13.53737 -71.94411 10817 ft 2 kts 146°
2026-04-27 19:49 -13.53740 -71.94408 10817 ft 0 kts 146°